Flag for Zimbabwe Weather past 2 weeks in Harare, Zimbabwe

Now
64 °F

Sunny.


Feels Like: 64 °F
Forecast: 61 / 82 °F
Wind: 8 mph from East

Location: Harare Kutsaga Airport

Current Time: Oct 25, 2014 at 6:43:44 AM

Latest Report: Oct 25, 2014 at 6:00 AM


Visibility: 10 mi

Pressure: 30.15 "Hg

Humidity: 68%

Dew point: 54 °F

Location of HarareLocation

Historic Weather in Harare — Graph

°F

Harare temperature yesterday

Maximum temperature yesterday: 88 °F (at 2:00 PM)
Minimum temperature yesterday: 57 °F (at 5:00 AM)
Average temperature yesterday: 73 °F

Past Weeks' High & Low Weather Summary

 TemperatureHumidityPressure
High91 °F (Oct 10, 1:00 PM)100% (Oct 11, 10:00 PM)30.33 "Hg (Oct 11, 10:00 PM)
Low52 °F (Oct 18, 6:00 AM)11% (Oct 17, 5:00 PM)29.92 "Hg (Oct 16, 3:00 PM)
Average73 °F47%30.16 "Hg
* Reported Oct 10 5:00 AM — Oct 25 5:00 AM, Harare, Weather by CustomWeather, © 2014

Note: Actual official high and low records may vary slightly from our data, if they occured in-between our weather recording intervals... More about our weather records

Advertising

Harare weather history for previous 24 hours

 ConditionsComfort  
Time TempWeatherWind HumidityBarometerVisibility
5:00 AM
Oct 25
66 °FClear.9 mph60%30.12 "Hg10 mi
2:00 AM64 °FClear.7 mph68%30.12 "Hg10 mi
1:00 AM66 °FClear.8 mph64%30.15 "Hg10 mi
12:00 AM68 °FPassing clouds.12 mph60%30.15 "HgN/A
11:00 PM
Oct 24
68 °FPassing clouds.12 mph60%30.18 "HgN/A
10:00 PM70 °FPassing clouds.14 mph57%30.18 "HgN/A
9:00 PM70 °FPassing clouds.3 mph50%30.15 "HgN/A
8:00 PM75 °FPassing clouds.8 mph41%30.12 "HgN/A
7:00 PM73 °FPassing clouds.8 mph38%30.09 "HgN/A
4:00 PM82 °FScattered showers. Partly sunny.7 mph26%30.07 "HgN/A
3:00 PM88 °FScattered clouds.7 mph21%30.07 "HgN/A
2:00 PM88 °FPassing clouds.8 mph22%30.07 "HgN/A
1:00 PM86 °FSunny.7 mph24%30.09 "Hg10 mi
12:00 PM84 °FSunny.6 mph25%30.15 "Hg10 mi
11:00 AM84 °FSunny.6 mph27%30.18 "Hg10 mi
10:00 AM82 °FPassing clouds.7 mph30%30.18 "HgN/A
9:00 AM77 °FSunny.9 mph39%30.18 "Hg10 mi
7:00 AM68 °FSunny.12 mph56%30.18 "Hg10 mi
6:00 AM61 °FSunny.8 mph72%30.15 "Hg10 mi
Weather by CustomWeather, © 2014

See weather overviewHow to use our weather pages